Location: Naloco
(16.5478°S, 37.1017°E)
Time: 02:52:33
(UTC+00:00)

ISS - Pass Details

Date: 13 August 2020
Orbit: 419 x 420 km, 51.6° (Epoch: 24 September)

Event Time Altitude Azimuth Distance (km) Brightness Sun altitude
Rises 16:54:14 0° 329° (NNW) 2,353 0.6 -22.3°
Reaches altitude 10° 16:56:20 10° 332° (NNW) 1,495 -0.5 -22.8°
Enters shadow 16:58:05 28° 342° (NNW) 826 -2.1 -23.3°
